Location: Newark
(43.0000°N, 1.6781°W)
Time: 17:18:00
(UTC+00:00)

Courier 1B - Visible Passes

Search period start: 24 September 2022 00:00
Search period end: 04 October 2022 00:00
Orbit: 962 x 1209 km, 28.3° (Epoch: 23 September)

Date Brightness Start Highest point End Pass type
(mag) Time Alt. Az. Time Alt. Az. Time Alt. Az.
24 Sep 9.0 19:13:04 10° SW 19:17:49 21° S 19:21:07 15° SE visible
24 Sep 9.6 21:06:34 10° SW 21:08:00 14° SW 21:08:00 14° SW visible
25 Sep 9.1 18:19:37 10° SW 18:24:19 21° S 18:28:56 10° SE visible
25 Sep 9.0 20:12:46 10° SW 20:17:18 20° S 20:17:31 20° S visible
26 Sep 9.0 19:19:03 10° SW 19:23:48 21° S 19:27:02 15° SSE visible
26 Sep 9.8 21:13:36 10° SW 21:13:55 11° SW 21:13:55 11° SW visible
27 Sep 9.1 18:25:23 10° SW 18:30:18 22° S 18:35:06 10° SE visible
27 Sep 9.3 20:19:23 10° SW 20:23:14 16° SSW 20:23:27 16° SSW visible
28 Sep 9.2 19:25:22 10° SW 19:29:46 19° SSW 19:33:00 13° SSE visible
29 Sep 9.3 18:31:29 10° SW 18:36:16 21° S 18:40:56 10° SE visible
29 Sep 9.6 20:26:59 10° SW 20:29:07 12° SSW 20:29:28 12° SSW visible
30 Sep 9.5 19:32:14 10° SW 19:35:40 15° SSW 19:39:03 10° SSE visible
01 Oct 9.5 18:37:57 10° SW 18:42:11 18° SSW 18:46:19 10° SSE visible
03 Oct 9.8 18:45:10 10° SW 18:48:03 13° SSW 18:50:51 10° S visible
